| time (UTC) | temp F | wind direction | speed MPH | gust MPH | rain 1hr in | rain 24hr in | rain mn in | humidity % | barometer mb |
| 20260906110637 | 75 | 18 | 2.0 | 4.0 | 0.00 | 0.00 | 0.00 | 53 | 1017.6 |
| 20260906105630 | 76 | 333 | 2.0 | 2.0 | 0.00 | 0.00 | 0.00 | 52 | 1017.4 |
| 20260906104627 | 76 | 333 | 0.0 | 2.0 | 0.00 | 0.00 | 0.00 | 52 | 1017.4 |
| 20260906102635 | 77 | 340 | 3.0 | 4.0 | 0.00 | 0.00 | 0.00 | 50 | 1017.3 |
| 20260906101631 | 77 | 99 | 0.0 | 1.0 | 0.00 | 0.00 | 0.00 | 51 | 1017.1 |
| 20260906100624 | 77 | 100 | 0.0 | 2.0 | 0.00 | 0.00 | 0.00 | 51 | 1017.1 |
| 20260906095623 | 78 | 100 | 1.0 | 2.0 | 0.00 | 0.00 | 0.00 | 50 | 1016.9 |
| 20260906094633 | 78 | 98 | 1.0 | 3.0 | 0.00 | 0.00 | 0.00 | 49 | 1016.7 |
| 20260906093625 | 78 | 211 | 0.0 | 0.0 | 0.00 | 0.00 | 0.00 | 49 | 1016.9 |
| 20260906092624 | 79 | 211 | 0.0 | 0.0 | 0.00 | 0.00 | 0.00 | 48 | 1016.8 |
| 20260906090636 | 79 | 211 | 0.0 | 1.0 | 0.00 | 0.00 | 0.00 | 47 | 1016.8 |
| 20260906085630 | 79 | 212 | 2.0 | 4.0 | 0.00 | 0.00 | 0.00 | 47 | 1016.9 |
| 20260906084632 | 79 | 148 | 1.0 | 5.0 | 0.00 | 0.00 | 0.00 | 47 | 1016.7 |
| 20260906083624 | 79 | 161 | 3.0 | 6.0 | 0.00 | 0.00 | 0.00 | 48 | 1016.8 |
| 20260906082638 | 79 | 35 | 3.0 | 6.0 | 0.00 | 0.00 | 0.00 | 48 | 1017.1 |
| 20260906075629 | 78 | 35 | 1.0 | 4.0 | 0.00 | 0.00 | 0.00 | 47 | 1017.2 |
| 20260906074625 | 79 | 34 | 2.0 | 3.0 | 0.00 | 0.00 | 0.00 | 46 | 1017.3 |
| 20260906073638 | 79 | 32 | 1.0 | 3.0 | 0.00 | 0.00 | 0.00 | 46 | 1017.5 |
| 20260906072636 | 79 | 76 | 1.0 | 3.0 | 0.00 | 0.00 | 0.00 | 46 | 1017.4 |
| 20260906071622 | 79 | 95 | 2.0 | 3.0 | 0.00 | 0.00 | 0.00 | 45 | 1017.4 |
| 20260906070658 | 79 | 127 | 3.0 | 5.0 | 0.00 | 0.00 | 0.00 | 45 | 1017.6 |
| 20260906065659 | 79 | 92 | 0.0 | 0.0 | 0.00 | 0.00 | 0.00 | 44 | 1017.6 |
| 20260906064649 | 79 | 95 | 0.0 | 0.0 | 0.00 | 0.00 | 0.00 | 44 | 1017.6 |
| 20260906063706 | 80 | 360 | 0.0 | 0.0 | 0.00 | 0.00 | 0.00 | 44 | 1017.7 |
| 20260906062647 | 80 | 79 | 0.0 | 2.0 | 0.00 | 0.00 | 0.00 | 43 | 1017.6 |
| 20260906061702 | 80 | 360 | 0.0 | 2.0 | 0.00 | 0.00 | 0.00 | 43 | 1017.6 |
| 20260906060657 | 80 | 71 | 0.0 | 3.0 | 0.00 | 0.00 | 0.00 | 43 | 1017.0 |
| 20260906055649 | 80 | 74 | 2.0 | 3.0 | 0.00 | 0.00 | 0.00 | 43 | 1016.9 |
| 20260906053657 | 81 | 96 | 2.0 | 4.0 | 0.00 | 0.00 | 0.00 | 42 | 1017.0 |
| 20260906052654 | 82 | 126 | 1.0 | 4.0 | 0.00 | 0.00 | 0.00 | 41 | 1016.9 |
| 20260906051704 | 82 | 144 | 1.0 | 4.0 | 0.00 | 0.00 | 0.00 | 41 | 1016.7 |
| 20260906050657 | 82 | 126 | 0.0 | 2.0 | 0.00 | 0.00 | 0.00 | 41 | 1017.6 |
| 20260906045651 | 83 | 128 | 1.0 | 3.0 | 0.00 | 0.00 | 0.00 | 41 | 1017.5 |
| 20260906044702 | 83 | 133 | 2.0 | 3.0 | 0.00 | 0.00 | 0.00 | 40 | 1016.7 |
| 20260906043653 | 84 | 137 | 3.0 | 4.0 | 0.00 | 0.00 | 0.00 | 40 | 1016.8 |
| 20260906042703 | 84 | 90 | 1.0 | 3.0 | 0.00 | 0.00 | 0.00 | 39 | 1016.7 |
| 20260906041656 | 85 | 80 | 0.0 | 3.0 | 0.00 | 0.00 | 0.00 | 38 | 1016.8 |
| 20260906040652 | 85 | 74 | 1.0 | 3.0 | 0.00 | 0.00 | 0.00 | 38 | 1016.8 |
| 20260906034701 | 86 | 75 | 1.0 | 4.0 | 0.00 | 0.00 | 0.00 | 38 | 1016.7 |
| 20260906032643 | 86 | 27 | 2.0 | 7.0 | 0.00 | 0.00 | 0.00 | 38 | 1016.5 |
| 20260906031645 | 86 | 11 | 5.0 | 9.0 | 0.00 | 0.00 | 0.00 | 38 | 1016.3 |
| 20260906030653 | 86 | 52 | 4.0 | 11.0 | 0.00 | 0.00 | 0.00 | 37 | 1016.4 |
| 20260906025649 | 86 | 360 | 9.0 | 12.0 | 0.00 | 0.00 | 0.00 | 37 | 1016.3 |
| 20260906024659 | 87 | 360 | 3.0 | 9.0 | 0.00 | 0.00 | 0.00 | 36 | 1016.2 |
| 20260906023650 | 87 | 350 | 3.0 | 6.0 | 0.00 | 0.00 | 0.00 | 35 | 1016.0 |
| 20260906021655 | 87 | 37 | 5.0 | 10.0 | 0.00 | 0.00 | 0.00 | 35 | 1015.9 |
| 20260906020649 | 86 | 25 | 6.0 | 11.0 | 0.00 | 0.00 | 0.00 | 35 | 1015.8 |
| 20260906015642 | 87 | 25 | 9.0 | 14.0 | 0.00 | 0.00 | 0.00 | 35 | 1015.8 |
| 20260906013651 | 89 | 355 | 12.0 | 16.0 | 0.00 | 0.00 | 0.00 | 31 | 1015.4 |
| 20260906012656 | 90 | 5 | 11.0 | 18.0 | 0.00 | 0.00 | 0.00 | 30 | 1015.5 |
| 20260906011654 | 92 | 328 | 9.0 | 15.0 | 0.00 | 0.00 | 0.00 | 29 | 1015.4 |
| 20260906010649 | 93 | 66 | 3.0 | 8.0 | 0.00 | 0.00 | 0.00 | 28 | 1015.1 |
| 20260906005643 | 94 | 62 | 7.0 | 11.0 | 0.00 | 0.00 | 0.00 | 27 | 1015.2 |
| 20260906004652 | 94 | 76 | 4.0 | 8.0 | 0.00 | 0.00 | 0.00 | 27 | 1015.1 |
| 20260906003641 | 95 | 63 | 5.0 | 8.0 | 0.00 | 0.00 | 0.00 | 25 | 1015.0 |
| 20260906000649 | 97 | 290 | 1.0 | 7.0 | 0.00 | 0.00 | 0.00 | 24 | 1015.1 |
| 20260905234647 | 96 | 80 | 1.0 | 7.0 | 0.00 | 0.00 | 0.00 | 25 | 1015.0 |
| 20260905233646 | 96 | 103 | 3.0 | 8.0 | 0.00 | 0.00 | 0.00 | 25 | 1015.0 |
| 20260905232639 | 96 | 100 | 1.0 | 8.0 | 0.00 | 0.00 | 0.00 | 25 | 1015.1 |
| 20260905231655 | 97 | 282 | 3.0 | 8.0 | 0.00 | 0.00 | 0.00 | 25 | 1015.2 |
| 20260905230647 | 97 | 289 | 4.0 | 9.0 | 0.00 | 0.00 | 0.00 | 25 | 1015.1 |
| 20260905225655 | 97 | 197 | 2.0 | 9.0 | 0.00 | 0.00 | 0.00 | 25 | 1015.1 |
| 20260905224650 | 97 | 284 | 2.0 | 6.0 | 0.00 | 0.00 | 0.00 | 25 | 1015.0 |
| 20260905223641 | 96 | 211 | 5.0 | 10.0 | 0.00 | 0.00 | 0.00 | 26 | 1015.3 |
| 20260905221644 | 97 | 303 | 4.0 | 8.0 | 0.00 | 0.00 | 0.00 | 26 | 1015.5 |
| 20260905220652 | 96 | 257 | 5.0 | 13.0 | 0.00 | 0.00 | 0.00 | 26 | 1015.4 |
| 20260905214646 | 96 | 17 | 5.0 | 9.0 | 0.00 | 0.00 | 0.00 | 26 | 1015.7 |
| 20260905213643 | 95 | 350 | 3.0 | 9.0 | 0.00 | 0.00 | 0.00 | 26 | 1015.9 |
| 20260905212656 | 95 | 276 | 5.0 | 10.0 | 0.00 | 0.00 | 0.00 | 26 | 1016.2 |
| 20260905210643 | 96 | 314 | 3.0 | 8.0 | 0.00 | 0.00 | 0.00 | 26 | 1016.6 |
| 20260905205652 | 95 | 13 | 3.0 | 10.0 | 0.00 | 0.00 | 0.00 | 27 | 1016.7 |
| 20260905204640 | 94 | 262 | 5.0 | 8.0 | 0.00 | 0.00 | 0.00 | 28 | 1017.1 |
| 20260905203638 | 94 | 217 | 5.0 | 10.0 | 0.00 | 0.00 | 0.00 | 29 | 1017.1 |
| 20260905202648 | 94 | 296 | 2.0 | 6.0 | 0.00 | 0.00 | 0.00 | 29 | 1017.2 |
| 20260905201642 | 93 | 76 | 3.0 | 6.0 | 0.00 | 0.00 | 0.00 | 28 | 1017.2 |
| 20260905200639 | 93 | 274 | 1.0 | 10.0 | 0.00 | 0.00 | 0.00 | 29 | 1017.3 |
| 20260905195652 | 93 | 259 | 3.0 | 12.0 | 0.00 | 0.00 | 0.00 | 30 | 1017.6 |
| 20260905194639 | 94 | 180 | 4.0 | 12.0 | 0.00 | 0.00 | 0.00 | 31 | 1017.5 |
| 20260905193653 | 93 | 76 | 2.0 | 11.0 | 0.00 | 0.00 | 0.00 | 32 | 1017.7 |
| 20260905192651 | 92 | 156 | 5.0 | 11.0 | 0.00 | 0.00 | 0.00 | 33 | 1017.9 |
| 20260905191641 | 92 | 198 | 3.0 | 9.0 | 0.00 | 0.00 | 0.00 | 34 | 1018.2 |
| 20260905190649 | 92 | 294 | 4.0 | 9.0 | 0.00 | 0.00 | 0.00 | 34 | 1018.2 |
| 20260905185643 | 91 | 196 | 6.0 | 10.0 | 0.00 | 0.00 | 0.00 | 35 | 1018.5 |
| 20260905184636 | 91 | 248 | 4.0 | 7.0 | 0.00 | 0.00 | 0.00 | 37 | 1018.7 |
| 20260905183651 | 90 | 267 | 4.0 | 10.0 | 0.00 | 0.00 | 0.00 | 38 | 1018.7 |
| 20260905182647 | 90 | 275 | 1.0 | 9.0 | 0.00 | 0.00 | 0.00 | 37 | 1019.0 |
| 20260905181733 | 89 | 263 | 2.0 | 7.0 | 0.00 | 0.00 | 0.00 | 38 | 1019.1 |
| 20260905175744 | 88 | 225 | 2.0 | 10.0 | 0.00 | 0.00 | 0.00 | 41 | 1019.3 |
| 20260905174741 | 87 | 250 | 3.0 | 10.0 | 0.00 | 0.00 | 0.00 | 42 | 1019.5 |
| 20260905173750 | 87 | 238 | 3.0 | 7.0 | 0.00 | 0.00 | 0.00 | 42 | 1019.5 |
| 20260905172740 | 87 | 222 | 1.0 | 8.0 | 0.00 | 0.00 | 0.00 | 42 | 1019.7 |
| 20260905170735 | 85 | 28 | 2.0 | 4.0 | 0.00 | 0.00 | 0.00 | 45 | 1019.7 |
| 20260905165748 | 84 | 298 | 3.0 | 6.0 | 0.00 | 0.00 | 0.00 | 46 | 1019.8 |
| 20260905164743 | 84 | 338 | 1.0 | 6.0 | 0.00 | 0.00 | 0.00 | 47 | 1019.7 |
| 20260905163742 | 83 | 348 | 2.0 | 6.0 | 0.00 | 0.00 | 0.00 | 49 | 1019.9 |
| 20260905162744 | 82 | 56 | 1.0 | 6.0 | 0.00 | 0.00 | 0.00 | 50 | 1019.9 |
| 20260905161746 | 82 | 265 | 0.0 | 7.0 | 0.00 | 0.00 | 0.00 | 51 | 1020.0 |
| 20260905155747 | 81 | 262 | 2.0 | 4.0 | 0.00 | 0.00 | 0.00 | 52 | 1020.1 |
| 20260905154736 | 81 | 200 | 3.0 | 6.0 | 0.00 | 0.00 | 0.00 | 54 | 1020.3 |
| 20260905153730 | 80 | 252 | 0.0 | 5.0 | 0.00 | 0.00 | 0.00 | 55 | 1020.2 |
| 20260905152738 | 80 | 191 | 3.0 | 7.0 | 0.00 | 0.00 | 0.00 | 57 | 1020.2 |
| 20260905151732 | 79 | 250 | 3.0 | 5.0 | 0.00 | 0.00 | 0.00 | 57 | 1020.2 |
| 20260905150744 | 79 | 246 | 3.0 | 7.0 | 0.00 | 0.00 | 0.00 | 57 | 1020.2 |
| 20260905145736 | 79 | 239 | 3.0 | 7.0 | 0.00 | 0.00 | 0.00 | 58 | 1020.1 |
| 20260905144745 | 78 | 206 | 5.0 | 8.0 | 0.00 | 0.00 | 0.00 | 60 | 1020.1 |
| 20260905143750 | 77 | 208 | 4.0 | 7.0 | 0.00 | 0.00 | 0.00 | 62 | 1020.1 |
| 20260905142745 | 76 | 205 | 5.0 | 7.0 | 0.00 | 0.01 | 0.00 | 64 | 1020.1 |
| 20260905140733 | 74 | 151 | 2.0 | 6.0 | 0.00 | 0.01 | 0.00 | 68 | 1019.8 |
| 20260905135730 | 73 | 187 | 3.0 | 5.0 | 0.00 | 0.01 | 0.00 | 69 | 1019.8 |
| 20260905134741 | 73 | 184 | 4.0 | 6.0 | 0.00 | 0.01 | 0.00 | 69 | 1019.6 |
| 20260905133738 | 72 | 184 | 3.0 | 6.0 | 0.00 | 0.01 | 0.00 | 69 | 1019.5 |
| 20260905130745 | 72 | 198 | 4.0 | 8.0 | 0.00 | 0.02 | 0.00 | 69 | 1019.3 |
| 20260905125740 | 71 | 173 | 5.0 | 10.0 | 0.00 | 0.02 | 0.00 | 68 | 1019.3 |
| 20260905124732 | 71 | 179 | 5.0 | 8.0 | 0.00 | 0.02 | 0.00 | 68 | 1019.2 |
| 20260905123744 | 71 | 180 | 5.0 | 7.0 | 0.00 | 0.02 | 0.00 | 68 | 1019.0 |
| 20260905122739 | 71 | 177 | 3.0 | 8.0 | 0.00 | 0.03 | 0.00 | 68 | 1019.0 |
| 20260905121734 | 71 | 191 | 5.0 | 10.0 | 0.00 | 0.03 | 0.00 | 68 | 1019.0 |
| 20260905120725 | 72 | 196 | 5.0 | 11.0 | 0.00 | 0.03 | 0.00 | 67 | 1018.9 |
| 20260905115740 | 71 | 175 | 7.0 | 11.0 | 0.00 | 0.03 | 0.00 | 67 | 1018.1 |
| 20260905114733 | 71 | 188 | 5.0 | 8.0 | 0.00 | 0.03 | 0.00 | 64 | 1018.3 |
| 20260905113726 | 71 | 175 | 1.0 | 2.0 | 0.00 | 0.03 | 0.00 | 63 | 1018.0 |
| 20260905112742 | 71 | 175 | 1.0 | 4.0 | 0.00 | 0.03 | 0.00 | 62 | 1017.7 |
| 20260905111740 | 71 | 137 | 2.0 | 4.0 | 0.00 | 0.03 | 0.00 | 63 | 1017.8 |